"Time","Temp","Dewpoint","Humidity","Pressure","Direction","Speed","Gust","Precip","PrecipRate"
"00:04:57","42.1","40.2","93","30.17","90","0","0","0.00","0.00"
"00:09:58","41.9","40","93","30.17","90","0","0","0.00","0.00"
"00:14:57","41.8","39.9","93","30.17","90","0","0","0.00","0.00"
"00:19:58","41.6","39.9","93.5","30.17","90","0","0","0.00","0.00"
"00:24:56","41.6","40","94","30.17","90","0","0","0.00","0.00"
"00:29:58","41.5","39.9","94","30.17","90","0","0","0.00","0.00"
"00:34:59","41.4","39.8","94","30.16","90","0","0","0.00","0.00"
"00:39:58","41.4","39.8","94","30.16","90","0","0","0.00","0.00"
"00:44:59","41.3","39.7","94","30.17","90","0","0","0.00","0.00"
"00:49:57","41.2","39.6","94","30.17","90","0","0","0.00","0.00"
"00:54:59","41.1","39.5","94","30.17","90","0","0","0.00","0.00"
"00:59:57","41.1","39.5","94","30.17","90","0","0","0.00","0.00"
"01:04:58","41","39.5","94.1","30.17","90","0","0","0.00","0.00"
"01:09:56","41","39.4","94.1","30.17","90","0","0","0.00","0.00"
"01:14:59","40.9","39.6","95","30.17","90","0","0","0.00","0.00"
"01:19:57","40.9","39.6","95","30.17","90","0","0","0.00","0.00"
"01:24:59","40.8","39.5","95","30.17","90","0","0","0.00","0.00"
"01:29:56","40.7","39.4","95","30.17","90","0","0","0.00","0.00"
"01:34:58","40.6","39.3","95","30.17","90","0","0","0.00","0.00"
"01:39:56","40.6","39.3","95","30.17","90","0","0","0.00","0.00"
"01:44:58","40.6","39.3","95","30.17","90","0","0","0.00","0.00"
"01:49:59","40.5","39.2","95","30.16","90","0","0","0.00","0.00"
"01:54:57","40.4","39.1","95","30.16","90","0","0","0.00","0.00"
"01:59:59","40.4","39.1","95","30.17","90","0","0","0.00","0.00"
"02:04:56","40.3","39","95","30.17","90","0","0","0.00","0.00"
"02:09:58","40.2","38.9","95","30.17","90","0","0","0.00","0.00"
"02:14:57","40","38.5","94.4","30.17","90","0","0","0.00","0.00"
"02:19:58","39.9","38.4","94.4","30.17","90","0","0","0.00","0.00"
"02:24:56","39.7","38.4","95","30.17","90","0","0","0.00","0.00"
"02:29:58","39.6","38.3","95","30.17","90","0","0","0.00","0.00"
"02:34:59","39.5","38.2","95","30.17","90","0","0","0.00","0.00"
"02:39:54","39.4","38.1","95","30.17","90","0","0","0.00","0.00"
"02:44:56","39.3","38","95","30.17","90","0","0","0.00","0.00"
"02:49:57","39.1","37.8","95","30.17","90","0","0","0.00","0.00"
"02:54:59","39.1","37.8","95","30.17","90","0","0","0.00","0.00"
"02:59:57","39.1","37.8","95","30.17","90","0","0","0.00","0.00"
"03:04:59","39.1","37.8","95","30.17","90","0","0","0.00","0.00"
"03:09:57","39.1","37.8","95","30.17","90","0","0","0.00","0.00"
"03:14:59","38.9","37.6","95","30.17","90","0","0","0.00","0.00"
"03:19:57","38.7","37.4","95","30.17","90","0","0","0.00","0.00"
"03:24:59","38.6","37.3","95","30.17","90","0","0","0.00","0.00"
"03:29:56","38.5","37.2","95","30.17","90","0","0","0.00","0.00"
"03:34:58","38.4","37.1","95","30.16","90","0","0","0.00","0.00"
"03:39:56","38.4","37.1","95","30.16","90","0","0","0.00","0.00"
"03:44:59","38.4","37.3","95.6","30.17","90","0","0","0.00","0.00"
"03:49:56","38.5","37.5","96","30.17","90","0","0","0.00","0.00"
"03:54:57","38.5","37.5","96","30.17","90","0","0","0.00","0.00"
"03:59:59","38.5","37.5","96","30.17","90","0","0","0.00","0.00"
"04:04:56","38.3","37","95","30.17","90","0","0","0.00","0.00"
"04:09:58","38.2","36.9","95","30.17","90","0","0","0.00","0.00"
"04:14:57","38","36.7","95","30.18","90","0","0","0.00","0.00"
"04:19:58","37.8","36.5","95","30.18","90","0","0","0.00","0.00"
"04:24:56","37.8","36.7","95.8","30.18","90","0","0","0.00","0.00"
"04:29:58","37.8","36.8","96","30.18","90","0","0","0.00","0.00"
"04:34:56","37.8","36.8","96","30.18","90","0","0","0.00","0.00"
"04:39:58","37.8","36.8","96","30.18","90","0","0","0.00","0.00"
"04:44:56","37.8","36.8","96","30.18","90","0","0","0.00","0.00"
"04:49:57","37.8","36.8","96","30.18","90","0","0","0.00","0.00"
"04:54:59","37.9","36.9","96","30.18","90","0","0","0.00","0.00"
"04:59:53","37.9","36.9","96","30.18","90","0","0","0.00","0.00"
"05:04:58","37.9","36.9","96","30.18","90","0","0","0.00","0.00"
"05:09:56","37.8","36.8","96","30.18","90","0","0","0.00","0.00"
"05:14:55","37.8","36.8","96","30.18","90","0","0","0.00","0.00"
"05:19:56","37.8","36.8","96","30.18","90","0","0","0.00","0.00"
"05:24:58","37.8","36.8","96","30.18","90","0","0","0.00","0.00"
"05:29:59","37.6","36.4","95.2","30.19","90","0","0","0.00","0.00"
"05:34:57","37.5","36.2","95","30.19","90","0","0","0.00","0.00"
"05:39:59","37.3","36.2","95.5","30.19","90","0","0","0.00","0.00"
"05:44:57","37.3","36.3","96","30.19","90","0","0","0.00","0.00"
"05:49:58","37.3","36.3","96","30.19","90","0","0","0.00","0.00"
"05:54:59","37.3","36.3","96","30.19","90","0","0","0.00","0.00"
"05:59:57","37.3","36.3","96","30.20","69","0","0","0.00","0.00"
"06:04:58","37.3","36.3","96","30.20","69","0","0","0.00","0.00"
"06:09:57","37.3","36.3","96","30.20","69","0","0","0.00","0.00"
"06:14:56","37.2","36.2","96","30.20","69","0","0","0.00","0.00"
"06:19:58","37.1","36.1","96","30.20","69","0","0","0.00","0.00"
"06:24:55","37.1","36.1","96","30.20","69","0","0","0.00","0.00"
"06:29:57","37.2","36.2","96","30.21","69","0","0","0.00","0.00"
"06:34:58","37.3","36.3","96","30.21","69","0","0","0.00","0.00"
"06:39:59","37.4","36.4","96","30.21","69","0","0","0.00","0.00"
"06:44:56","37.6","36.6","96","30.22","69","0","0","0.00","0.00"
"06:49:56","37.7","36.7","96","30.22","69","0","0","0.00","0.00"
"06:54:56","37.9","36.9","96","30.22","69","0","0","0.00","0.00"
"06:59:57","38.3","37.4","96.8","30.22","69","0","1.2","0.00","0.00"
"07:04:54","38.7","37.9","96.8","30.22","38","0","1.2","0.00","0.00"
"07:09:56","39.4","38.6","97","30.22","36","0","1.2","0.00","0.00"
"07:14:58","40.1","39.3","96.9","30.23","36","0","0","0.00","0.00"
"07:19:59","40.6","39.5","96","30.23","32","0","1.2","0.00","0.00"
"07:24:57","41","39.9","95.6","30.23","32","0","0","0.00","0.00"
"07:29:59","41.5","40.1","94.6","30.24","32","0","0","0.00","0.00"
"07:34:56","42","40.5","94.2","30.24","31","0","0","0.00","0.00"
"07:39:57","42.6","40.8","93.4","30.24","15","0","0","0.00","0.00"
"07:44:58","43.3","40.9","90.9","30.24","313","0.7","7","0.00","0.00"
"07:49:59","44.1","40.6","87.4","30.24","317","0.2","4","0.00","0.00"
"07:54:56","44.9","40.1","83.2","30.24","343","1.5","5","0.00","0.00"
"07:59:57","45.7","39.8","79.7","30.25","333","2.4","11.5","0.00","0.00"
"08:04:57","46.6","39.7","76.8","30.25","350","1.8","7","0.00","0.00"
"08:09:59","47.4","39.5","74.1","30.25","341","1","6.9","0.00","0.00"
"08:14:57","48.3","39.7","72","30.25","23","1.7","6","0.00","0.00"
"08:19:58","49.1","39.4","69.2","30.25","350","2.1","10.4","0.00","0.00"
"08:24:59","49.8","38.8","65.8","30.25","29","1.9","5","0.00","0.00"
"08:29:56","50.5","38.6","63.6","30.26","344","2.1","7","0.00","0.00"
"08:34:56","51.2","38.4","61.7","30.26","9","2","5","0.00","0.00"
"08:39:58","51.8","38.1","59.4","30.26","348","2.3","7","0.00","0.00"
"08:44:56","52.3","37.7","57.4","30.26","342","2.7","7","0.00","0.00"
"08:49:57","52.9","37.7","56.2","30.26","308","2.5","6","0.00","0.00"
"08:54:57","53.4","37.2","54.2","30.26","351","1.9","8.1","0.00","0.00"
"08:59:59","54.1","37.9","54.3","30.26","339","0.2","7","0.00","0.00"
"09:04:56","54.7","36.9","51.1","30.26","40","1.7","6.9","0.00","0.00"
"09:09:58","55.1","36.9","50.1","30.26","8","1.7","5","0.00","0.00"
"09:14:56","55.5","36","47.9","30.26","348","3.2","11.5","0.00","0.00"
"09:19:57","55.5","35.2","46.4","30.26","3","3.7","9.2","0.00","0.00"
"09:24:57","55.6","34.9","45.6","30.26","330","1.4","15","0.00","0.00"
"09:29:58","55.7","35","45.5","30.27","61","1.2","6","0.00","0.00"
"09:34:56","55.9","35.6","46.4","30.27","336","0.7","13","0.00","0.00"
"09:39:57","56","35.1","45.3","30.27","9","1.6","12.7","0.00","0.00"
"09:44:58","56","35.1","45.3","30.27","332","1.9","11.5","0.00","0.00"
"09:49:59","56.3","35.5","45.5","30.27","335","2.9","8.1","0.00","0.00"
"09:54:56","56.6","35.4","44.8","30.27","352","2.1","6.9","0.00","0.00"
"09:59:57","56.9","35.6","44.8","30.27","356","1.2","4.6","0.00","0.00"
"10:04:49","57.1","35.4","44","30.27","42","1.8","5","0.00","0.00"
"10:09:59","57.3","36","44.7","30.27","68","1.5","6","0.00","0.00"
"10:14:58","57.9","36.2","44.2","30.27","336","3.9","13","0.00","0.00"
"10:19:59","58.1","35.1","41.9","30.27","64","1.7","9.2","0.00","0.00"
"10:24:56","58.4","36","42.9","30.27","330","2.1","7","0.00","0.00"
"10:29:58","58.7","35.8","42.3","30.27","16","2.1","7","0.00","0.00"
"10:34:59","59.3","37.1","43.6","30.27","15","3","9.2","0.00","0.00"
"10:39:57","59.4","35.5","40.8","30.27","5","2.3","6","0.00","0.00"
"10:44:58","59.5","35.7","41","30.27","345","3.4","11.5","0.00","0.00"
"10:49:59","59.6","36.6","42.2","30.27","18","1.9","6","0.00","0.00"
"10:54:59","59.9","35.4","39.9","30.27","358","2.7","12","0.00","0.00"
"10:59:56","59.8","34.7","38.9","30.27","339","3.3","11","0.00","0.00"
"11:04:57","59.9","35","39.2","30.27","342","2.4","11.5","0.00","0.00"
"11:09:59","60.1","35.2","39.4","30.27","334","3.5","10.4","0.00","0.00"
"11:14:57","60.1","34.2","37.8","30.27","329","3.9","10","0.00","0.00"
"11:19:58","60","34.2","38","30.27","337","3.1","14","0.00","0.00"
"11:24:59","60","34.3","38.1","30.27","334","4.5","10.4","0.00","0.00"
"11:29:56","60.5","36.9","41.5","30.27","4","2.8","12","0.00","0.00"
"11:34:57","60.9","36.9","40.9","30.27","85","2","5","0.00","0.00"
"11:39:58","61.1","36.1","39.2","30.27","66","2.5","6","0.00","0.00"
"11:44:56","60.9","36.1","39.6","30.27","59","2","5.8","0.00","0.00"
"11:49:57","61.2","35","37.4","30.26","334","3.2","11.5","0.00","0.00"
"11:54:58","61.5","37","40.2","30.26","352","2.8","8.1","0.00","0.00"
"11:59:59","62","37.6","40.5","30.26","1","2.2","7","0.00","0.00"
"12:04:56","62.4","37.4","39.7","30.26","349","4.1","11.5","0.00","0.00"
"12:09:58","62.3","37.8","40.2","30.26","341","3","11.5","0.00","0.00"
"12:14:59","62.7","37.9","40","30.26","49","2.2","5","0.00","0.00"
"12:19:56","62.8","37.4","38.9","30.25","353","3.2","9.2","0.00","0.00"
"12:24:57","63.1","37.7","39","30.25","345","3.5","9.2","0.00","0.00"
"12:29:58","63.1","38.1","39.6","30.25","331","3.9","10.4","0.00","0.00"
"12:34:59","63.3","37","37.7","30.25","331","2.8","7","0.00","0.00"
"12:39:57","63.5","39.6","41.5","30.25","15","2.5","6.9","0.00","0.00"
"12:44:58","63.9","40.6","42.6","30.25","70","2.6","6","0.00","0.00"
"12:49:59","64","38.8","39.4","30.25","323","2.7","9.2","0.00","0.00"
"12:54:56","64.3","39.3","39.9","30.25","341","3.1","11","0.00","0.00"
"12:59:57","64.3","40.3","41.4","30.25","336","2.9","11.5","0.00","0.00"
"13:04:58","64.8","39.5","39.5","30.24","0","1.9","4","0.00","0.00"
"13:09:56","64.9","38.3","37.6","30.24","8","3","13","0.00","0.00"
"13:14:58","64.8","40.1","40.3","30.24","337","3.3","12","0.00","0.00"
"13:19:56","65","38.9","38.2","30.24","3","3.2","9","0.00","0.00"
"13:24:57","64.9","37.4","36.3","30.24","340","4.8","12","0.00","0.00"
"13:29:58","64.7","38.3","37.8","30.24","349","5.3","17.3","0.00","0.00"
"13:34:58","64.8","38.3","37.6","30.24","359","2.9","16.1","0.00","0.00"
"13:39:56","64.8","37.2","36","30.24","346","4.9","12","0.00","0.00"
"13:44:57","64.9","39.1","38.7","30.24","345","3.2","11.5","0.00","0.00"
"13:49:58","65.2","38.2","36.9","30.24","307","1.9","6","0.00","0.00"
"13:54:59","65.8","40.3","39.4","30.24","341","1.8","10.4","0.00","0.00"
"13:59:57","66.4","41.4","40.1","30.24","21","1.5","4","0.00","0.00"
"14:04:58","66.9","40.1","37.5","30.23","339","1.5","5","0.00","0.00"
"14:09:59","67","41","38.8","30.23","15","1.6","6","0.00","0.00"
"14:14:57","66.9","39.2","36.2","30.23","9","2.6","10","0.00","0.00"
"14:19:58","66.7","37.9","34.5","30.23","334","4.8","11.5","0.00","0.00"
"14:24:59","66.5","37.6","34.5","30.23","345","3.6","10.4","0.00","0.00"
"14:29:56","66.9","40.7","38.5","30.23","333","1.9","7","0.00","0.00"
"14:34:57","67.4","42.9","41","30.23","357","1.2","3.5","0.00","0.00"
"14:39:59","67.7","39.5","35.9","30.23","306","3.4","10.4","0.00","0.00"
"14:44:56","67.8","40.5","37.1","30.23","325","2.9","7","0.00","0.00"
"14:49:58","68","40.8","37.1","30.23","35","2.1","6","0.00","0.00"
"14:54:59","68.1","40","35.8","30.23","55","1.9","6","0.00","0.00"
"14:59:56","68.2","40.6","36.7","30.23","325","2.2","5.8","0.00","0.00"
"15:04:57","68.2","40.8","36.9","30.23","85","2.2","7","0.00","0.00"
"15:09:59","68","39.4","35.2","30.23","29","2.4","5.8","0.00","0.00"
"15:14:57","67.8","39.4","35.4","30.23","41","1.5","5","0.00","0.00"
"15:19:58","67.9","40.2","36.4","30.22","8","2.3","7","0.00","0.00"
"15:24:59","68","39.3","35","30.22","37","1.8","4.6","0.00","0.00"
"15:29:56","68.1","39.9","35.8","30.22","40","1.3","4","0.00","0.00"
"15:34:58","68.2","39.4","34.8","30.22","87","2.3","7","0.00","0.00"
"15:39:56","68.4","39.5","34.9","30.22","335","1.6","6","0.00","0.00"
"15:44:57","68.7","39.8","34.9","30.22","359","1.4","6","0.00","0.00"
"15:49:58","69.2","41.2","36.2","30.21","340","3.4","11.5","0.00","0.00"
"15:54:59","69.7","40.8","35.1","30.21","0","2.7","11.5","0.00","0.00"
"15:59:56","69.4","40.1","34.4","30.21","38","2.2","11","0.00","0.00"
"16:04:57","69.1","40.1","34.7","30.21","17","2","6.9","0.00","0.00"
"16:09:59","69.2","41.5","36.5","30.21","81","1.9","4","0.00","0.00"
"16:14:58","69.2","40.4","35","30.21","35","2.5","11","0.00","0.00"
"16:19:59","69.5","40","34.3","30.20","328","4.8","10","0.00","0.00"
"16:24:56","69.6","39.5","33.4","30.20","330","3.8","12","0.00","0.00"
"16:29:57","69.7","39.9","33.8","30.20","9","3.2","11.5","0.00","0.00"
"16:34:58","69.6","39.8","33.8","30.20","125","1.6","4","0.00","0.00"
"16:39:56","69.7","41.2","35.5","30.20","318","2.7","6","0.00","0.00"
"16:44:58","70","39.4","32.8","30.20","331","2.9","9.2","0.00","0.00"
"16:49:59","70.2","39.7","33.1","30.20","334","2.2","5","0.00","0.00"
"16:54:56","70.5","40.6","33.8","30.20","322","1.3","10","0.00","0.00"
"16:59:57","70.8","40.8","33.8","30.20","0","2.4","10.4","0.00","0.00"
"17:04:58","70.4","39.7","32.7","30.20","122","1.5","3.5","0.00","0.00"
"17:09:56","70.2","41.1","34.8","30.20","358","1.3","4","0.00","0.00"
"17:12:54","70.4","40.3","33.6","30.20","358","1.9","5","0.00","0.00"
"17:19:59","70.6","38.6","31.1","30.20","344","3.9","12","0.00","0.00"
"17:24:56","70.4","39.1","32","30.20","353","3.2","10.4","0.00","0.00"
"17:29:58","70.3","39.6","32.8","30.21","341","1.8","5","0.00","0.00"
"17:34:59","70.6","40","32.9","30.21","338","1.6","4.6","0.00","0.00"
"17:39:57","70.7","40","32.7","30.21","82","1.3","4","0.00","0.00"
"17:44:58","70.6","39.7","32.5","30.21","102","1.7","5","0.00","0.00"
"17:49:56","70.4","38.9","31.7","30.21","346","2.1","10","0.00","0.00"
"17:54:57","70.4","38.8","31.5","30.21","276","1.3","4","0.00","0.00"
"17:59:58","70.4","38.3","31","30.21","31","1.7","5","0.00","0.00"
"18:04:55","70.5","39.7","32.6","30.21","49","0.8","3.5","0.00","0.00"
"18:09:57","70.3","37.7","30.4","30.21","15","0.8","6","0.00","0.00"
"18:14:59","70.2","37.8","30.7","30.21","323","1.6","6.9","0.00","0.00"
"18:19:56","69.9","37.8","31","30.21","5","1.3","4.6","0.00","0.00"
"18:24:57","69.5","38.3","32","30.21","2","1.3","5","0.00","0.00"
"18:29:58","69.3","38.5","32.5","30.21","355","2.8","7","0.00","0.00"
"18:34:59","69.1","38","32","30.21","333","2.2","10.4","0.00","0.00"
"18:39:57","69","38.2","32.5","30.21","346","1.9","9.2","0.00","0.00"
"18:44:58","68.7","38","32.4","30.21","339","1.3","6","0.00","0.00"
"18:49:56","68.4","38.3","33.1","30.21","350","2","5.8","0.00","0.00"
"18:54:57","68.1","38","33.1","30.21","3","1.1","6","0.00","0.00"
"18:59:58","67.8","37.1","32.4","30.21","318","1.3","5","0.00","0.00"
"19:04:59","67.6","37.5","33.1","30.21","344","1.7","7","0.00","0.00"
"19:09:57","67.3","37.1","32.9","30.21","336","1.9","5","0.00","0.00"
"19:14:56","67","37.2","33.3","30.21","340","1.5","4","0.00","0.00"
"19:19:58","66.8","36.8","33","30.21","318","1","4","0.00","0.00"
"19:24:59","66.5","36.8","33.4","30.21","301","0.4","2.3","0.00","0.00"
"19:29:56","66.2","37","34","30.21","353","1","3.5","0.00","0.00"
"19:34:57","65.8","37.5","35.1","30.21","6","1.1","3.5","0.00","0.00"
"19:39:56","65.5","37.4","35.5","30.21","5","0.1","1.2","0.00","0.00"
"19:44:57","65.1","38.6","37.6","30.22","5","0.4","3.5","0.00","0.00"
"19:49:59","64.7","38.6","38.1","30.22","5","0","1.2","0.00","0.00"
"19:54:57","64.2","39","39.4","30.22","5","0","1.2","0.00","0.00"
"19:59:59","63.6","38.5","39.5","30.22","5","0.1","1.2","0.00","0.00"
"20:04:56","63.1","38.9","40.9","30.22","5","0","1.2","0.00","0.00"
"20:09:58","62.6","39.9","43.2","30.22","5","0.2","1.2","0.00","0.00"
"20:14:56","62.1","40.3","44.7","30.22","5","0","0","0.00","0.00"
"20:19:58","61.5","42.5","49.8","30.22","5","0","0","0.00","0.00"
"20:24:55","60.7","41.6","49.5","30.22","5","0","0","0.00","0.00"
"20:26:59","60.1","40.3","48","30.22","5","0","0","0.00","0.00"
"20:34:59","59.3","40.7","50.2","30.23","5","0","0","0.00","0.00"
"20:39:58","58.5","41.5","53.2","30.23","5","0.3","2.3","0.00","0.00"
"20:44:56","57.8","41.4","54.5","30.23","5","0.6","2.3","0.00","0.00"
"20:49:58","57.3","42","56.6","30.23","5","0.6","1.2","0.00","0.00"
"20:54:56","56.9","42.1","57.6","30.23","5","0","0","0.00","0.00"
"20:59:57","56.3","42.1","58.9","30.23","5","0","0","0.00","0.00"
"21:04:54","55.7","42","59.9","30.23","5","0","0","0.00","0.00"
"21:09:57","55.2","42.4","62","30.23","5","0","0","0.00","0.00"
"21:14:59","54.6","42.8","64.2","30.24","5","0","0","0.00","0.00"
"21:19:57","54.1","43.2","66.4","30.24","5","0","0","0.00","0.00"
"21:22:55","53.8","43.1","67","30.24","5","0","0","0.00","0.00"
"21:29:57","53.2","43.6","69.6","30.24","5","0","1","0.00","0.00"
"21:34:58","52.8","43.7","71","30.24","5","0","0","0.00","0.00"
"21:39:58","52.4","43.3","71","30.24","5","0.1","1.2","0.00","0.00"
"21:44:59","52","43.5","72.7","30.24","5","0.2","1.2","0.00","0.00"
"21:49:57","51.6","43.1","72.5","30.24","5","0","0","0.00","0.00"
"21:54:59","51.3","43.1","73.5","30.24","5","0.1","1.2","0.00","0.00"
"21:59:56","50.9","42.8","73.8","30.25","5","0","1.2","0.00","0.00"
"22:04:57","50.6","42.6","74","30.25","5","0","0","0.00","0.00"
"22:09:59","50.3","42.4","74.1","30.25","5","0.2","1.2","0.00","0.00"
"22:14:58","50.1","42.4","74.8","30.25","5","0.4","1.2","0.00","0.00"
"22:19:59","49.9","42.4","75.3","30.25","5","0","1.2","0.00","0.00"
"22:24:57","49.9","42.4","75.5","30.25","5","0","0","0.00","0.00"
"22:29:59","49.7","42.8","77","30.26","5","0","0","0.00","0.00"
"22:34:56","49.4","42.5","77","30.26","5","0","0","0.00","0.00"
"22:39:59","49.1","42.1","76.7","30.26","5","0","0","0.00","0.00"
"22:44:56","48.9","42.2","77.7","30.26","5","0","0","0.00","0.00"
"22:49:58","48.7","42.2","78.4","30.26","5","0","0","0.00","0.00"
"22:54:56","48.5","42","78","30.26","5","0","0","0.00","0.00"
"22:59:57","48.2","41.8","78.3","30.26","5","0","0","0.00","0.00"
"23:04:59","48.1","41.7","78.3","30.26","5","0","0","0.00","0.00"
"23:09:57","48","41.6","78.2","30.26","5","0","0","0.00","0.00"
"23:14:56","47.9","41.4","78","30.26","5","0","0","0.00","0.00"
"23:19:57","47.8","41.3","78","30.26","5","0","0","0.00","0.00"
"23:24:59","47.6","41.4","78.9","30.26","5","0","0","0.00","0.00"
"23:29:57","47.5","41.3","79","30.26","5","0","0","0.00","0.00"
"23:34:58","47.3","41.1","79","30.26","5","0","0","0.00","0.00"
"23:39:57","47.2","41.2","79.8","30.26","5","0","0","0.00","0.00"
"23:44:59","47","41","79.5","30.26","5","0","0","0.00","0.00"
"23:49:53","47","40.8","79","30.26","5","0","0","0.00","0.00"
"23:54:59","47","40.7","78.7","30.26","5","0.2","1.2","0.00","0.00"
"23:59:57","47.2","40.7","78","30.27","5","0.1","1.2","0.00","0.00"
